Date,TemperatureHighF,TemperatureAvgF,TemperatureLowF,DewpointHighF,DewpointAvgF,DewpointLowF,HumidityHigh,HumidityAvg,HumidityLow,PressureMaxIn,PressureMinIn,WindSpeedMaxMPH,WindSpeedAvgMPH,GustSpeedMaxMPH,PrecipitationSumIn
2012-1-1,69,50,30,53,37,26,91,68,31,30.11,29.80,8,1,12,0.31
2012-1-2,53,42,33,43,18,5,71,42,20,29.99,29.85,5,1,8,0.00
2012-1-3,38,30,21,12,2,-9,47,34,18,30.27,29.94,8,2,12,0.00
2012-1-4,45,29,15,13,4,-1,72,41,18,30.34,30.00,4,1,9,0.00
2012-1-5,58,40,29,27,19,9,75,48,23,30.04,29.95,6,0,8,0.00
2012-1-6,68,45,28,35,26,16,82,55,18,30.04,29.89,5,1,9,0.00
2012-1-7,72,51,34,45,37,27,85,63,34,29.99,29.86,7,1,9,0.00
2012-1-8,61,52,46,46,38,26,90,64,29,30.22,29.98,5,0,8,0.01
2012-1-9,47,43,41,42,41,40,99,94,82,30.22,30.00,4,0,6,0.28
2012-1-10,60,46,39,44,41,36,99,84,45,30.06,29.96,4,0,6,0.01
2012-1-11,60,49,40,58,46,38,97,90,72,29.97,29.45,5,1,8,0.28
2012-1-12,62,53,45,52,45,42,91,76,55,29.60,29.46,6,2,12,0.00
2012-1-13,56,40,31,46,20,12,72,47,28,29.99,29.45,9,2,13,0.00
2012-1-14,48,33,23,23,16,5,75,53,22,30.16,29.98,5,1,8,0.00
2012-1-15,46,33,23,27,20,13,83,61,30,30.51,30.06,5,0,11,0.00
2012-1-16,47,35,20,31,19,12,81,58,28,30.56,30.28,4,1,7,0.00
2012-1-17,67,54,44,54,44,31,92,69,52,30.28,29.78,8,3,14,0.15
2012-1-18,56,47,32,54,35,14,95,68,24,30.09,29.21,8,1,13,0.15
2012-1-19,51,37,24,31,22,16,74,58,31,30.18,30.00,4,1,7,0.00
2012-1-20,58,45,29,43,35,25,92,73,40,30.13,30.01,4,1,8,0.15
2012-1-21,62,51,36,56,48,32,96,88,74,30.14,29.79,6,1,10,0.48
2012-1-22,36,35,33,33,31,29,89,87,82,30.33,30.13,8,1,11,0.00
2012-1-23,53,44,36,51,42,33,95,91,86,30.26,29.95,2,0,4,0.00
2012-1-24,67,53,41,52,48,39,95,84,52,30.16,29.96,4,0,4,0.02
2012-1-25,66,45,31,43,36,28,93,74,34,30.27,30.14,4,0,6,0.00
2012-1-26,70,51,35,58,46,30,93,83,63,30.15,29.73,8,1,11,0.00
2012-1-27,70,60,42,60,50,34,90,71,39,29.98,29.55,8,2,14,0.46
2012-1-28,64,45,29,38,31,25,89,63,30,30.16,29.95,4,1,8,0.00
2012-1-29,57,42,29,27,16,4,72,42,16,30.30,30.14,4,1,7,0.00
2012-1-30,63,41,25,32,20,9,79,52,17,30.37,30.19,5,0,7,0.00
2012-1-31,70,52,35,30,24,14,70,39,15,30.33,30.17,6,2,10,0.00
2012-2-1,72,59,45,50,40,27,84,53,39,30.21,30.01,6,1,9,0.00
2012-2-2,74,58,45,55,46,31,97,68,31,30.24,29.93,6,1,9,0.04
2012-2-3,60,42,30,35,29,23,89,64,28,30.45,30.24,7,1,11,0.00
2012-2-4,59,44,30,49,40,26,98,86,52,30.33,29.98,5,0,8,0.32
2012-2-5,50,42,31,49,41,30,99,96,90,30.20,29.93,4,0,9,0.17
2012-2-6,50,38,28,39,32,14,99,81,30,30.24,30.07,2,0,5,0.00
2012-2-7,59,43,31,39,33,28,96,72,37,30.13,30.05,4,0,7,0.00
2012-2-8,53,38,27,39,32,24,96,79,56,30.14,30.02,4,0,8,0.00
2012-2-9,53,39,28,31,26,20,91,65,31,30.23,30.09,6,0,8,0.00
2012-2-10,51,39,26,39,32,22,92,75,55,30.18,29.83,4,0,5,0.00
2012-2-11,52,39,24,40,22,-8,95,58,23,29.95,29.62,8,1,16,0.00
2012-2-12,44,30,21,11,-1,-11,62,30,19,30.17,29.94,8,2,12,0.00
2012-2-13,54,34,17,22,13,4,77,50,17,30.22,30.06,4,0,8,0.00
2012-2-14,62,47,32,42,30,20,75,55,29,30.10,29.93,5,1,11,0.00
2012-2-15,68,49,34,42,33,20,95,61,22,30.24,30.00,6,0,11,0.00
2012-2-16,59,46,34,51,41,29,99,83,47,30.23,29.94,7,1,13,0.38
2012-2-17,67,51,40,51,42,37,99,78,37,30.05,29.95,4,0,8,0.01
2012-2-18,68,51,38,44,38,26,94,67,24,30.08,29.90,5,1,7,0.00
2012-2-19,50,41,32,46,38,31,97,89,68,29.91,29.63,10,2,17,0.58
2012-2-20,53,39,27,37,30,22,97,74,37,30.31,29.81,7,1,12,0.14
2012-2-21,61,42,23,45,34,20,93,74,46,30.29,29.93,8,1,10,0.00
2012-2-22,72,56,36,49,43,34,98,69,29,29.94,29.53,8,1,14,0.00
2012-2-23,77,60,42,58,52,42,99,79,44,29.65,29.51,6,1,9,0.13
2012-2-24,80,67,48,63,56,22,94,69,35,29.77,29.42,14,3,24,0.07
2012-2-25,57,46,34,27,16,6,54,34,18,30.27,29.76,8,2,14,0.00
2012-2-26,55,38,24,28,16,6,78,49,19,30.46,30.27,5,1,8,0.00
2012-2-27,49,41,27,48,38,20,99,89,72,30.41,30.27,2,0,4,0.13
2012-2-28,68,51,35,48,38,22,99,70,24,30.38,30.25,6,1,10,0.01
2012-2-29,72,58,43,62,51,38,91,78,66,30.26,29.76,7,2,11,0.01
2012-3-1,83,68,47,62,52,38,87,65,27,29.83,29.04,6,2,12,0.00
2012-3-2,60,52,42,60,48,39,97,87,79,29.97,29.63,6,1,9,0.00
2012-3-3,65,58,49,62,56,48,98,92,79,29.70,29.55,7,1,8,0.70
2012-3-4,58,45,30,49,33,14,99,69,26,29.97,29.59,7,1,8,0.28
2012-3-5,58,41,28,32,23,11,86,53,24,30.45,29.88,9,1,14,0.00
2012-3-6,55,38,24,30,21,11,85,55,21,30.64,30.43,5,1,8,0.00
2012-3-7,71,51,29,49,38,26,95,67,31,30.61,30.39,7,1,11,0.00
2012-3-8,77,63,48,56,50,44,95,68,34,30.40,30.07,8,2,14,0.00
2012-3-9,63,54,34,58,45,25,99,75,30,30.25,30.01,5,1,9,0.14
2012-3-10,59,44,32,39,27,12,93,60,21,30.48,30.24,6,1,11,0.00
2012-3-11,66,45,27,37,23,12,91,54,17,30.54,30.38,4,1,8,0.00
2012-3-12,74,54,33,51,41,29,95,66,38,30.40,30.19,7,1,12,0.00
2012-3-13,80,66,56,59,55,48,92,71,48,30.20,28.52,6,2,11,0.02
2012-3-14,87,68,51,61,52,40,98,66,23,30.16,30.06,4,1,9,0.00
2012-3-15,87,67,48,61,51,44,97,64,27,30.22,30.10,5,1,8,0.00
2012-3-16,83,68,56,63,56,51,92,67,38,30.16,30.03,4,1,6,0.25
2012-3-17,80,67,58,66,59,56,99,78,48,30.20,30.09,5,1,8,0.00
2012-3-18,73,62,56,61,58,55,98,87,66,30.27,30.14,4,0,4,0.18
2012-3-19,79,62,51,64,57,51,99,85,51,30.20,30.06,4,0,6,0.04
2012-3-20,86,67,54,64,58,53,98,79,40,30.20,30.06,4,1,8,0.19
2012-3-21,75,65,56,63,60,56,99,84,62,30.25,30.14,4,0,8,0.01
2012-3-22,84,68,53,66,58,53,99,75,40,30.23,30.07,4,1,8,0.00
2012-3-23,87,70,57,65,60,56,99,75,39,30.11,29.90,4,1,6,0.00
2012-3-24,68,65,56,66,63,54,98,94,81,29.94,29.69,3,0,6,1.23
2012-3-25,71,59,51,62,55,50,99,89,69,29.76,29.62,5,0,9,0.04
2012-3-26,80,66,51,60,49,27,99,63,28,30.06,29.71,6,1,11,0.04
2012-3-27,63,49,36,38,23,7,82,45,16,30.32,30.06,5,1,9,0.00
2012-3-28,82,61,39,58,48,34,90,66,41,30.21,29.77,6,2,11,0.00
2012-3-29,86,70,53,59,44,17,86,50,11,29.90,29.74,6,1,10,0.00
2012-3-30,79,63,45,59,50,42,93,66,42,30.00,29.80,5,1,10,0.00
2012-3-31,78,64,12,66,61,56,98,86,55,29.80,29.63,4,1,97,0.09
2012-4-1,70,60,51,56,50,46,91,73,48,29.87,29.62,7,1,11,0.00
2012-4-2,75,63,46,60,45,16,87,59,17,29.90,29.55,8,1,15,0.00
2012-4-3,80,60,37,52,42,34,97,61,27,29.99,29.76,5,1,11,0.00
2012-4-4,89,69,57,64,58,53,97,73,39,29.78,29.54,4,1,7,0.27
2012-4-5,63,58,46,62,47,37,98,71,44,29.81,29.59,6,1,11,0.06
2012-4-6,65,50,38,46,39,26,97,71,29,30.02,29.77,8,1,16,0.11
2012-4-7,69,50,34,41,27,8,93,55,14,30.20,30.02,4,1,8,0.00
2012-4-8,78,57,35,47,33,7,96,54,11,30.09,29.83,4,1,6,0.00
2012-4-9,77,61,46,45,33,9,81,45,14,29.99,29.76,4,1,7,0.00
2012-4-10,78,60,41,47,35,18,90,50,16,29.89,29.67,5,1,8,0.00
2012-4-11,61,51,39,43,27,16,75,44,21,30.06,29.74,5,1,9,0.00
2012-4-12,66,49,33,36,28,16,86,52,19,30.15,30.05,5,1,9,0.00
2012-4-13,72,51,33,46,34,23,99,62,20,30.22,30.10,4,0,7,0.00
2012-4-14,78,59,37,52,39,30,97,59,22,30.29,30.10,4,1,8,0.00
2012-4-15,84,70,57,61,57,52,93,68,42,30.17,30.06,4,1,10,0.00
2012-4-16,87,73,59,60,57,55,90,62,40,30.14,30.00,5,1,10,0.00
2012-4-17,88,73,60,64,57,43,91,61,35,30.11,30.01,5,1,9,0.00
2012-4-18,74,64,53,52,47,42,89,56,42,30.11,29.97,6,1,10,0.02
2012-4-19,65,57,51,56,52,48,96,84,71,30.05,29.96,4,0,8,0.01
2012-4-20,75,61,47,59,54,47,99,81,55,29.98,29.80,3,0,4,0.00
2012-4-21,79,66,54,67,60,52,97,82,57,29.82,29.63,3,0,7,0.00
2012-4-22,65,56,48,63,55,48,99,97,90,29.67,29.37,5,1,9,1.15
2012-4-23,56,47,42,49,44,40,99,89,64,29.64,29.40,2,0,7,0.06
2012-4-24,66,50,34,48,34,19,99,63,23,29.74,29.61,4,0,7,0.00
2012-4-25,71,54,36,51,44,34,98,72,39,29.91,29.74,3,0,6,0.00
2012-4-26,76,64,53,67,60,51,98,86,64,29.85,29.68,4,1,7,0.52
2012-4-27,79,67,58,64,55,45,97,69,42,30.06,29.75,4,0,8,0.00
2012-4-28,60,56,51,52,48,45,92,77,61,30.16,30.03,6,1,8,0.00
2012-4-29,73,61,53,59,54,50,92,80,60,30.17,30.05,4,0,6,0.00
2012-4-30,80,68,58,65,59,53,95,77,51,30.22,30.05,4,0,7,0.00
2012-5-1,87,74,66,70,65,62,94,75,47,30.11,29.97,4,1,7,0.00
2012-5-2,92,77,66,70,67,63,95,74,45,30.06,29.97,2,0,4,0.00
2012-5-3,94,79,64,71,67,61,95,70,41,30.07,29.96,2,0,4,0.00
2012-5-4,92,76,61,70,64,59,96,72,39,30.01,29.83,3,0,4,0.00
2012-5-5,87,73,63,72,66,61,97,82,52,29.86,29.72,4,0,5,0.96
2012-5-6,72,62,0,67,65,59,96,82,74,29.99,29.81,4,0,8,0.96
2012-5-7,78,66,56,63,58,55,97,78,56,30.03,29.92,4,0,7,0.00
2012-5-8,78,68,56,64,59,54,96,75,55,29.99,29.79,3,0,6,0.00
2012-5-9,79,67,59,69,63,58,98,86,70,29.84,29.58,4,0,8,1.09
2012-5-10,74,61,51,59,52,47,99,78,44,29.91,29.63,4,0,8,0.01
2012-5-11,75,60,46,53,44,26,95,64,24,30.18,29.90,5,0,10,0.00
2012-5-12,78,61,44,60,50,43,98,72,38,30.30,30.17,3,0,4,0.07
2012-5-13,76,66,56,63,58,53,94,79,54,30.22,30.09,3,0,6,0.09
2012-5-14,78,66,61,66,62,60,97,89,61,30.11,29.90,4,0,6,0.38
2012-5-15,80,68,65,72,65,63,97,91,70,29.95,29.85,3,0,6,0.14
2012-5-16,83,71,64,70,66,62,97,84,57,29.91,29.81,2,0,3,0.00
2012-5-17,82,68,63,70,64,59,96,88,60,29.99,29.85,5,1,11,0.35
2012-5-18,77,66,56,59,51,43,93,65,35,30.05,29.97,7,1,10,0.00
2012-5-19,77,63,50,53,47,32,91,62,25,30.08,29.99,7,1,11,0.00
2012-5-20,82,66,49,64,54,37,98,72,24,30.06,29.96,7,1,12,0.00
2012-5-21,80,70,65,69,64,61,96,83,61,29.98,29.80,4,0,6,0.00
2012-5-22,87,71,62,71,64,60,96,81,46,29.84,29.72,4,0,7,0.00
2012-5-23,81,70,64,69,64,60,96,82,58,29.91,29.77,3,0,4,0.00
2012-5-24,87,71,62,72,65,60,95,83,55,30.01,29.89,3,0,8,0.04
2012-5-25,87,72,62,72,65,61,96,81,52,30.07,29.99,4,0,7,0.00
2012-5-26,86,73,65,70,65,63,95,78,54,30.10,30.01,6,0,8,0.00
2012-5-27,84,72,65,73,67,62,96,86,65,30.10,30.00,5,0,10,0.25
2012-5-28,86,74,70,74,69,67,94,85,62,30.05,29.93,3,0,6,0.25
2012-5-29,89,77,70,74,70,65,98,81,50,29.98,29.78,4,0,12,0.02
2012-5-30,75,70,63,71,68,62,97,94,80,29.81,29.64,5,0,10,0.78
2012-5-31,88,74,60,72,65,59,99,76,49,29.84,29.73,2,0,3,0.00
2012-6-1,86,73,64,74,68,61,95,84,57,29.85,29.63,4,0,10,0.72
2012-6-2,76,65,55,64,58,52,99,81,52,29.84,29.72,4,0,7,0.02
2012-6-3,80,65,51,63,56,50,99,76,43,29.89,29.74,2,0,5,0.00
2012-6-4,84,70,59,66,59,56,94,72,48,29.76,29.58,2,0,5,0.00
2012-6-5,77,66,56,60,57,53,90,73,48,29.89,29.66,6,1,11,0.00
2012-6-6,74,61,53,57,54,49,97,79,45,29.96,29.86,4,0,8,0.00
2012-6-7,79,65,51,62,56,50,98,76,45,30.00,29.92,2,0,4,0.00
2012-6-8,84,69,55,64,56,49,97,70,37,30.00,29.91,4,0,6,0.00
2012-6-9,89,72,55,66,58,53,96,69,34,30.03,29.93,3,0,4,0.00
2012-6-10,90,76,63,68,62,54,93,67,35,30.11,30.01,2,0,4,0.00
2012-6-11,81,73,67,72,68,62,91,84,72,30.11,30.00,4,0,8,0.01
2012-6-12,84,75,71,73,70,68,94,85,67,30.01,29.79,3,0,7,0.00
2012-6-13,84,73,61,73,67,54,98,82,56,29.96,29.79,4,0,8,0.11
2012-6-14,77,66,54,68,60,52,95,83,70,30.11,29.96,4,0,8,0.00
2012-6-15,81,68,55,62,58,52,96,72,49,30.18,30.08,6,1,10,0.00
2012-6-16,81,67,52,61,53,50,94,67,38,30.21,30.09,6,1,10,0.00
2012-6-17,80,67,51,62,55,50,97,71,42,30.14,29.96,5,0,7,0.00
2012-6-18,82,69,58,71,62,56,94,81,53,30.07,29.98,2,0,4,0.01
2012-6-19,91,77,66,72,67,63,92,75,46,30.11,30.02,2,0,4,0.00
2012-6-20,94,80,68,74,69,66,95,74,46,30.10,29.98,3,0,5,0.00
2012-6-21,96,78,70,76,72,68,95,85,47,30.01,29.82,3,0,7,0.01
2012-6-22,95,79,71,77,72,66,96,81,49,29.87,29.71,3,0,5,0.00
2012-6-23,85,76,69,75,71,68,97,86,65,29.96,29.82,4,0,5,0.00
2012-6-24,91,78,67,73,67,60,96,73,39,29.97,29.84,4,0,8,0.00
2012-6-25,92,79,68,75,70,66,95,75,49,29.88,29.60,4,0,14,0.00
2012-6-26,81,71,58,67,52,42,90,56,30,29.85,29.74,6,1,14,0.01
2012-6-27,87,70,53,62,53,45,96,62,29,29.91,29.81,6,0,9,0.11
2012-6-28,96,77,57,66,59,55,95,61,30,29.95,29.80,3,0,5,0.00
2012-6-29,105,87,70,74,67,63,81,57,32,29.82,29.66,4,0,7,0.00
2012-6-30,102,86,67,74,66,60,89,57,31,29.83,29.74,4,0,9,0.00
2012-7-1,103,82,72,80,71,60,92,73,33,29.92,29.75,8,0,22,0.00
2012-7-2,92,82,72,69,66,61,79,61,40,29.95,29.86,4,0,6,0.00
2012-7-3,100,84,70,74,68,58,91,64,30,29.94,29.82,2,0,4,0.05
2012-7-4,98,79,69,77,71,67,95,78,40,29.92,29.83,4,0,6,0.05
2012-7-5,102,80,70,76,70,60,95,78,34,29.88,29.78,6,0,11,0.15
2012-7-6,97,80,69,76,71,68,96,79,43,29.90,29.80,4,0,6,0.02
2012-7-7,101,85,71,78,72,67,96,69,38,29.93,29.82,2,0,4,0.00
2012-7-8,104,90,77,76,71,66,87,59,35,29.90,29.74,3,0,7,0.00
2012-7-9,96,83,72,75,71,68,93,70,44,29.91,29.77,6,0,12,0.04
2012-7-10,82,75,72,76,73,70,97,93,81,29.97,29.87,4,0,6,0.92
2012-7-11,77,72,68,75,71,67,98,95,91,30.08,29.96,4,0,8,0.15
2012-7-12,83,75,68,72,69,67,98,85,66,30.12,30.05,3,0,5,0.00
2012-7-13,86,76,70,75,71,68,96,85,61,30.15,30.08,3,0,7,0.00
2012-7-14,92,80,72,77,72,67,97,80,48,30.18,30.05,3,0,6,0.00
2012-7-15,90,81,72,77,72,65,96,76,49,30.15,29.99,4,0,7,0.00
2012-7-16,95,81,73,77,72,68,94,77,45,30.03,29.84,2,0,4,0.01
2012-7-17,97,81,71,79,73,69,96,81,45,29.91,29.81,2,0,4,0.04
2012-7-18,96,83,74,78,74,69,96,76,52,29.93,29.83,4,0,6,0.01
2012-7-19,96,84,74,75,72,68,95,72,44,29.96,29.83,3,0,7,0.09
2012-7-20,92,79,73,78,73,70,96,84,57,29.90,29.81,3,0,7,0.04
2012-7-21,90,78,71,78,74,69,97,89,60,30.04,29.88,4,0,7,0.20
2012-7-22,84,76,71,77,73,69,98,91,78,30.12,27.00,2,0,4,0.01
2012-7-23,97,81,70,79,73,68,97,80,44,30.11,29.93,5,0,8,0.38
2012-7-24,96,80,72,80,74,70,97,83,55,29.96,29.73,4,0,12,0.01
2012-7-25,89,79,70,72,69,64,89,74,47,29.91,29.79,2,0,4,0.00
2012-7-26,99,86,74,78,74,70,94,71,44,29.86,29.71,3,0,5,0.00
2012-7-27,101,84,73,78,73,67,95,73,39,29.90,29.75,4,0,8,0.54
2012-7-28,92,80,71,81,73,67,97,82,50,29.97,29.82,3,0,4,0.31
2012-7-29,90,77,67,75,71,66,98,84,53,29.96,29.86,4,0,5,0.13
2012-7-30,90,75,69,79,71,67,97,89,59,29.97,29.88,7,0,11,0.21
2012-7-31,88,76,68,75,71,67,98,88,59,29.95,29.82,2,0,4,0.01
2012-8-1,89,76,69,76,70,66,95,86,54,29.87,29.76,4,0,7,0.35
2012-8-2,92,74,70,77,69,63,95,86,54,29.92,29.80,5,0,8,0.01
2012-8-3,91,78,67,74,70,65,96,77,52,30.04,29.88,3,0,6,0.00
2012-8-4,93,80,70,76,70,67,94,75,47,30.16,30.02,3,0,6,0.00
2012-8-5,93,80,72,78,73,69,95,81,50,30.18,30.05,3,0,6,0.00
2012-8-6,91,80,73,76,72,69,95,80,54,30.09,29.93,3,0,4,0.00
2012-8-7,89,77,0,73,69,63,96,75,42,30.01,29.76,2,1,6,0.00
2012-8-8,88,75,66,77,71,64,93,87,64,30.00,29.87,4,0,8,0.00
2012-8-9,86,75,66,76,70,64,95,84,66,29.95,29.81,2,0,4,0.22
2012-8-10,84,77,73,74,72,69,92,84,71,29.83,29.76,3,0,6,0.00
2012-8-11,89,77,72,75,71,69,91,83,61,29.89,29.80,2,0,4,0.00
2012-8-12,88,79,71,73,71,68,92,76,60,29.95,29.88,2,0,4,0.00
2012-8-13,90,77,68,75,69,63,93,78,44,29.99,29.88,2,0,4,0.00
2012-8-14,92,78,65,73,67,62,94,72,42,29.91,29.79,3,0,4,0.00
2012-8-15,89,76,70,75,70,66,92,83,62,29.88,29.80,2,0,4,0.56
2012-8-16,88,75,69,70,67,62,92,79,46,29.97,29.86,4,0,5,0.56
2012-8-17,91,76,65,74,67,63,94,78,45,29.95,29.76,2,0,3,0.00
2012-8-18,87,74,0,72,68,66,92,77,55,29.85,29.77,4,0,5,0.01
2012-8-19,73,71,68,69,68,66,92,89,85,29.86,29.77,3,0,6,0.54
2012-8-20,80,71,68,71,67,66,94,89,69,29.92,29.78,2,0,5,0.12
2012-8-21,86,73,69,72,68,66,93,85,57,30.02,29.90,2,0,4,0.00
2012-8-22,82,72,67,71,67,65,93,85,62,30.06,29.99,4,0,7,0.00
2012-8-23,84,73,67,70,65,62,94,79,51,30.09,29.09,4,0,8,0.00
2012-8-24,76,70,67,69,66,63,93,86,69,30.10,30.03,4,0,5,0.13
2012-8-25,71,66,62,67,64,60,95,92,85,30.06,29.98,6,0,10,1.93
2012-8-26,85,72,66,70,67,64,94,85,60,30.14,30.04,3,0,6,0.01
2012-8-27,88,75,68,75,70,65,94,84,60,30.09,29.95,3,0,6,0.00
2012-8-28,88,76,71,76,71,68,92,86,66,29.98,29.84,3,0,5,0.00
2012-8-29,85,76,69,72,69,66,92,83,61,29.96,29.85,3,0,5,0.01
2012-8-30,90,75,67,73,68,65,94,80,52,30.11,29.94,3,0,7,0.00
2012-8-31,91,77,68,77,71,66,93,83,60,30.16,30.00,2,0,4,0.00
2012-9-1,93,80,73,78,73,70,92,80,55,30.06,29.96,4,0,8,0.00
2012-9-2,92,78,72,77,72,68,93,84,58,30.01,29.88,3,0,7,0.45
2012-9-3,88,74,70,77,70,68,93,88,67,30.01,29.91,2,0,6,1.12
2012-9-4,89,77,71,74,70,68,92,82,56,29.99,29.86,3,0,4,0.00
2012-9-5,89,77,72,75,72,68,92,84,61,29.90,29.78,2,0,6,0.07
2012-9-6,91,76,71,75,71,66,92,85,58,29.90,29.81,4,0,8,0.35
2012-9-7,83,74,71,73,69,68,92,86,65,29.93,29.80,2,0,4,0.01
2012-9-8,88,76,68,75,70,65,92,84,60,29.82,29.61,3,0,6,1.30
2012-9-9,79,69,60,66,62,57,94,81,52,29.91,29.74,4,0,8,0.06
2012-9-10,79,65,54,63,56,51,94,75,42,30.11,29.91,4,0,8,0.00
2012-9-11,79,64,52,62,54,48,94,74,38,30.26,30.11,4,0,6,0.00
2012-9-12,80,64,51,62,54,49,94,74,42,30.32,30.22,5,0,7,0.00
2012-9-13,81,66,53,64,58,51,94,79,50,30.30,30.18,4,0,6,0.00
2012-9-14,83,70,62,69,64,60,94,82,58,30.21,29.07,3,0,5,0.00
2012-9-15,81,69,60,67,62,58,94,81,58,30.12,30.05,5,0,10,0.00
2012-9-16,64,60,57,60,58,55,94,92,89,30.14,30.03,2,0,3,0.41
2012-9-17,83,68,60,71,64,58,95,87,63,30.06,29.90,3,0,7,0.02
2012-9-18,81,72,69,73,68,67,92,89,72,29.91,29.65,4,0,10,0.54
2012-9-19,70,67,57,67,60,54,92,82,62,30.08,29.75,5,0,8,0.05
2012-9-20,77,63,53,61,56,52,95,80,50,30.11,30.00,4,0,7,0.00
2012-9-21,83,66,53,65,59,51,95,79,49,30.04,29.93,2,0,4,0.00
2012-9-22,86,72,61,68,63,58,93,78,52,29.96,29.81,3,0,6,0.00
2012-9-23,77,67,52,66,54,44,89,67,37,30.07,29.89,4,0,8,0.00
2012-9-24,73,58,48,57,49,45,94,75,41,30.17,30.06,4,0,7,0.00
2012-9-25,79,61,44,59,51,43,95,74,39,30.20,30.09,2,0,4,0.00
2012-9-26,84,66,52,63,57,50,93,76,46,30.17,30.08,3,0,4,0.00
2012-9-27,86,69,58,67,60,56,93,77,41,30.14,30.02,2,0,4,0.00
2012-9-28,85,70,60,70,63,58,93,82,55,30.05,29.91,2,0,2,0.06
2012-9-29,68,64,58,65,62,57,95,93,92,29.94,29.83,2,0,4,0.52
2012-9-30,74,62,56,60,57,55,96,85,56,29.87,29.79,2,0,4,0.01
2012-10-1,66,62,60,62,59,57,94,90,83,29.89,29.81,3,0,4,0.08
2012-10-2,86,71,64,76,67,62,93,88,70,29.91,29.76,2,0,3,0.26
2012-10-3,83,76,73,74,72,70,92,89,70,30.11,29.91,2,0,3,0.26
2012-10-4,75,71,63,70,68,61,92,89,80,30.17,30.07,0,0,0,0.00
2012-10-5,81,67,59,64,60,56,92,81,46,30.11,29.96,3,0,6,0.00
2012-10-6,85,67,55,66,60,53,95,80,47,29.96,29.81,3,0,4,0.00
2012-10-7,64,55,50,59,50,47,92,84,62,30.09,29.89,6,1,9,0.01
2012-10-8,52,50,47,50,47,43,96,90,76,30.18,30.05,5,1,8,0.00
2012-10-9,55,52,48,54,50,47,98,96,92,30.09,30.01,4,0,8,0.01
2012-10-10,73,59,52,57,54,50,97,85,51,30.04,29.89,2,0,6,0.01
2012-10-11,68,54,44,50,45,39,93,75,42,30.24,28.54,4,0,8,0.00
2012-10-12,75,55,41,55,46,39,96,76,40,30.31,30.09,4,0,7,0.00
2012-10-13,68,53,41,48,43,38,90,72,42,30.42,30.28,4,0,8,0.00
2012-10-14,79,58,41,60,51,39,95,79,50,30.29,29.96,2,0,7,0.00
2012-10-15,75,64,55,66,60,53,94,87,71,29.97,29.64,2,0,4,0.01
2012-10-16,70,55,44,53,47,42,95,78,44,29.91,29.77,4,0,6,0.00
2012-10-17,73,55,45,57,47,43,96,78,39,29.95,29.86,3,0,6,0.00
2012-10-18,78,60,44,63,54,42,95,82,54,29.90,29.72,5,0,8,0.00
2012-10-19,81,67,51,64,56,40,94,75,31,29.73,29.61,4,0,8,0.00
2012-10-20,73,57,44,52,46,42,92,71,37,29.89,29.69,3,0,6,0.00
2012-10-21,69,54,42,47,42,36,90,70,35,30.09,29.88,4,0,6,0.00
2012-10-22,75,54,39,53,44,38,95,75,34,30.17,30.07,2,0,4,0.00
2012-10-23,81,58,42,57,48,40,94,76,38,30.14,30.03,2,0,4,0.00
2012-10-24,83,61,46,61,52,44,94,76,39,30.14,30.02,2,0,4,0.00
2012-10-25,82,62,47,63,54,46,94,78,43,30.12,30.03,3,0,4,0.00
2012-10-26,70,63,54,63,59,52,94,87,75,30.06,29.86,6,1,10,0.01
2012-10-27,66,64,61,61,58,54,91,84,76,29.86,29.60,8,2,15,0.00
2012-10-28,62,59,53,55,50,47,92,74,63,29.62,29.47,8,2,14,0.00
2012-10-29,53,46,41,51,44,39,97,92,79,29.49,29.20,5,1,9,0.00
2012-10-30,49,45,40,40,37,33,97,74,58,29.53,29.20,4,1,7,0.00
2012-10-31,57,47,37,40,36,31,87,69,49,29.70,29.52,4,0,4,0.00
2012-11-1,60,47,37,40,36,32,86,69,41,29.78,29.66,5,0,8,0.00
2012-11-2,65,45,32,42,35,29,94,72,36,29.90,29.73,4,0,7,0.00
2012-11-3,61,44,32,37,33,-10,88,67,33,30.03,29.89,4,0,8,0.00
2012-11-4,53,46,38,41,38,34,90,76,59,30.04,29.91,6,0,8,0.00
2012-11-5,56,42,32,41,33,28,92,73,40,30.06,29.93,7,0,10,0.00
2012-11-6,46,38,30,35,31,26,90,76,59,30.07,29.83,5,0,9,0.00
2012-11-7,51,42,33,36,34,29,85,73,52,29.88,29.76,4,0,8,0.00
2012-11-8,64,43,32,39,27,12,93,63,17,30.04,29.87,3,0,7,0.00
2012-11-9,65,43,28,38,30,22,88,67,28,30.20,30.03,3,0,6,0.00
2012-11-10,75,48,32,47,34,26,94,67,21,30.33,30.19,2,0,4,0.00
2012-11-11,76,52,34,51,42,32,94,73,39,30.43,30.32,3,0,4,0.00
2012-11-12,77,61,44,60,53,42,93,77,50,30.37,30.12,4,0,8,0.00
2012-11-13,62,51,43,59,48,40,94,89,78,30.35,30.08,4,1,11,0.01
2012-11-14,54,42,32,40,33,28,89,72,42,30.41,30.31,7,1,11,0.00
2012-11-15,48,42,36,43,37,30,94,82,69,30.32,30.15,4,0,7,0.00
2012-11-16,57,45,35,42,38,31,94,79,49,30.32,30.18,7,0,10,0.00
2012-11-17,58,44,32,39,34,29,93,73,45,30.41,30.31,7,1,13,0.00
2012-11-18,59,52,46,47,44,39,87,76,63,30.38,30.26,8,2,12,0.00
2012-11-19,58,52,48,47,44,42,85,75,66,30.27,30.09,7,1,12,0.00
2012-11-20,60,50,40,46,43,38,90,76,56,30.10,29.98,6,0,8,0.00
2012-11-21,62,44,34,43,36,29,94,76,45,30.11,30.02,4,0,11,0.00
2012-11-22,64,42,31,38,29,19,91,67,23,30.17,30.07,6,0,13,0.00
2012-11-23,69,46,27,41,31,23,93,63,26,30.10,29.80,3,0,8,0.00
2012-11-24,52,42,28,40,24,13,72,53,26,30.06,29.80,4,0,8,0.00
2012-11-25,53,34,21,25,18,11,82,57,22,30.12,29.96,4,0,6,0.00
2012-11-26,69,44,29,38,25,13,85,58,16,30.13,30.01,4,0,4,0.00
2012-11-27,58,45,33,41,36,28,91,75,45,30.18,30.04,5,0,9,0.01
2012-11-28,53,38,28,38,31,23,94,77,48,30.33,30.16,4,0,7,0.00
2012-11-29,56,36,23,36,24,19,89,68,29,30.42,30.30,4,0,5,0.00
2012-11-30,64,41,26,40,29,22,92,68,29,30.35,30.22,3,0,5,0.00
2012-12-1,68,44,30,46,36,27,93,75,43,30.34,30.25,3,0,4,0.00
2012-12-2,68,49,34,53,41,31,95,77,48,30.33,30.17,4,0,6,0.00
2012-12-3,77,60,49,56,51,45,92,75,43,30.23,30.14,3,1,4,0.00
2012-12-4,72,55,42,56,48,40,94,80,54,30.25,30.10,4,0,6,0.00
2012-12-5,67,56,41,57,52,39,92,85,67,30.15,30.05,3,0,5,0.00
2012-12-6,51,42,32,42,34,30,94,74,50,30.28,30.13,6,1,11,0.00
2012-12-7,58,50,44,49,42,35,82,76,68,30.16,29.92,3,0,5,0.00
2012-12-8,68,56,49,53,50,46,93,82,59,29.99,29.89,3,0,5,0.00
2012-12-9,72,60,48,60,54,45,94,85,62,30.07,29.92,4,0,6,0.01
2012-12-10,71,65,62,61,59,56,91,82,62,29.93,29.62,7,1,11,0.00
2012-12-11,65,58,50,58,46,38,91,67,49,30.09,29.65,5,1,9,0.00
2012-12-12,50,44,38,39,35,30,92,70,55,30.26,30.07,8,1,13,0.00
2012-12-13,53,40,30,39,35,27,93,81,60,30.31,30.19,6,0,10,0.00
2012-12-14,59,37,25,38,27,18,93,72,23,30.30,30.16,3,0,5,0.00
2012-12-15,56,42,28,41,33,23,93,75,38,30.21,30.03,4,0,5,0.00
2012-12-16,58,53,47,54,50,40,93,90,72,30.04,29.83,4,0,8,0.00
2012-12-17,64,58,54,56,54,53,95,88,74,29.84,29.49,6,1,11,0.00
2012-12-18,65,54,35,54,44,29,92,72,41,29.84,29.57,4,1,10,0.00
2012-12-19,67,44,30,40,32,26,92,70,27,30.07,29.81,4,0,6,0.00
2012-12-20,63,48,34,59,42,31,93,80,61,30.11,29.36,8,1,14,0.01
2012-12-21,63,45,37,60,28,18,89,54,34,29.72,29.37,11,3,15,0.00
2012-12-22,52,39,28,24,18,11,70,47,23,30.02,29.71,8,2,13,0.00
2012-12-23,58,41,26,28,20,8,73,48,19,30.08,29.94,4,1,7,0.00
2012-12-24,55,48,41,45,36,27,81,63,48,29.98,29.83,4,1,8,0.00
2012-12-25,62,51,40,46,42,37,89,73,46,30.06,29.85,5,1,9,0.00
2012-12-26,53,45,41,50,42,35,94,88,69,30.04,29.34,7,2,12,0.63
2012-12-27,51,41,32,37,29,22,88,65,42,30.01,29.54,5,2,8,0.00
2012-12-28,45,36,25,32,26,19,83,66,47,30.12,29.95,4,0,6,0.00
2012-12-29,53,43,37,43,34,26,91,73,54,29.95,29.57,5,1,8,0.26
2012-12-30,48,37,25,27,19,12,72,51,28,30.32,29.85,5,1,11,0.00
2012-12-31,54,38,21,27,21,14,82,56,24,30.31,30.03,5,0,11,0.00
2013-1-1,49,46,43,45,38,25,90,76,48,30.03,29.85,7,0,8,0.20